GAF1 EDDB-EBBR

Flight info

Callsign GAF1
Flight time 1h 10m
Altitude 34000
Route KISUC1K KISUC Z20 MAG Z92 ABGUS DCT TOLTA DCT ABAMI Z717 NEREL/N0401F240 T855 AGENI/N0368F180 T855 BATTY BATTY7A
Aircraft A359/H-SDE2E3GHIJ3J4J5LM1ORWXY/LB1D1

Departure

Time 2026-04-30 21:05
Airport Berlin Brandenburg Airport (EDDB)

Arrival

Time 2026-04-30 22:15
Airport Brussels Airport (EBBR)
Time Latitude Longitude Altitude Speed Heading
2026-04-30 20:37 52.38077 13.50869 161 ft 0 kts 58°
2026-04-30 21:00 52.38090 13.50904 161 ft 11 kts 58°
2026-04-30 21:01 52.37985 13.51084 161 ft 15 kts 227°
2026-04-30 21:01 52.37923 13.50924 161 ft 19 kts 239°
2026-04-30 21:01 52.37753 13.50493 161 ft 26 kts 238°
2026-04-30 21:02 52.37684 13.50314 161 ft 29 kts 238°
2026-04-30 21:02 52.37573 13.50028 161 ft 32 kts 238°
2026-04-30 21:02 52.37447 13.49709 161 ft 35 kts 237°
2026-04-30 21:02 52.37313 13.49365 161 ft 37 kts 237°
2026-04-30 21:03 52.37170 13.48998 161 ft 34 kts 237°
2026-04-30 21:03 52.37094 13.48802 161 ft 14 kts 237°
2026-04-30 21:03 52.37039 13.48667 161 ft 16 kts 229°
2026-04-30 21:03 52.36931 13.48580 161 ft 19 kts 199°
2026-04-30 21:04 52.36824 13.48564 161 ft 14 kts 147°
2026-04-30 21:04 52.36821 13.48723 161 ft 17 kts 68°
2026-04-30 21:04 52.36983 13.49401 161 ft 75 kts 69°
2026-04-30 21:05 52.37278 13.50645 161 ft 157 kts 69°
2026-04-30 21:05 52.37720 13.52503 757 ft 178 kts 68°
2026-04-30 21:05 52.38273 13.54951 2388 ft 167 kts 67°
2026-04-30 21:05 52.38549 13.56180 2795 ft 177 kts 67°
2026-04-30 21:06 52.39012 13.58233 3120 ft 207 kts 68°
2026-04-30 21:06 52.39524 13.60504 3868 ft 216 kts 68°
2026-04-30 21:06 52.40049 13.62834 4714 ft 219 kts 68°
2026-04-30 21:06 52.40572 13.65142 5659 ft 218 kts 68°
2026-04-30 21:07 52.41121 13.67432 6690 ft 213 kts 66°
2026-04-30 21:07 52.41662 13.69633 7719 ft 204 kts 66°
2026-04-30 21:07 52.42196 13.71794 8556 ft 208 kts 66°
2026-04-30 21:07 52.42744 13.74002 9374 ft 210 kts 65°
2026-04-30 21:08 52.43429 13.76067 10308 ft 205 kts 47°
2026-04-30 21:08 52.44615 13.77375 11058 ft 210 kts 24°
2026-04-30 21:08 52.46067 13.77887 11773 ft 218 kts 11°
2026-04-30 21:08 52.47591 13.78117 12506 ft 223 kts
2026-04-30 21:09 52.49166 13.77943 13237 ft 233 kts 353°
2026-04-30 21:09 52.50664 13.76818 13903 ft 252 kts 331°
2026-04-30 21:09 52.51921 13.74580 14272 ft 282 kts 311°
2026-04-30 21:09 52.53015 13.71766 14604 ft 302 kts 308°
2026-04-30 21:10 52.54132 13.68769 15140 ft 311 kts 308°
2026-04-30 21:10 52.55279 13.65729 15817 ft 315 kts 308°
2026-04-30 21:10 52.56451 13.62661 16520 ft 319 kts 309°
2026-04-30 21:10 52.57550 13.59448 17216 ft 327 kts 301°
2026-04-30 21:11 52.58259 13.55844 17952 ft 338 kts 287°
2026-04-30 21:11 52.58410 13.51922 18571 ft 353 kts 271°
2026-04-30 21:11 52.57914 13.47907 18883 ft 375 kts 253°
2026-04-30 21:11 52.56807 13.43920 19161 ft 392 kts 245°
2026-04-30 21:12 52.55517 13.39894 19434 ft 404 kts 244°
2026-04-30 21:12 52.54192 13.35771 19838 ft 411 kts 244°
2026-04-30 21:12 52.52859 13.31586 20346 ft 415 kts 245°
2026-04-30 21:12 52.51524 13.27371 20870 ft 418 kts 245°
2026-04-30 21:13 52.50177 13.23109 21389 ft 422 kts 245°
2026-04-30 21:13 52.48820 13.18810 21872 ft 426 kts 245°
2026-04-30 21:13 52.47457 13.14482 22399 ft 429 kts 245°
2026-04-30 21:13 52.46098 13.10192 22938 ft 431 kts 245°
2026-04-30 21:14 52.44718 13.05844 23437 ft 434 kts 245°
2026-04-30 21:14 52.43319 13.01437 23957 ft 437 kts 245°
2026-04-30 21:14 52.41913 12.97019 24472 ft 438 kts 245°
2026-04-30 21:14 52.40501 12.92587 24933 ft 440 kts 245°
2026-04-30 21:15 52.39081 12.88134 25393 ft 443 kts 245°
2026-04-30 21:15 52.37653 12.83667 25876 ft 445 kts 245°
2026-04-30 21:15 52.36212 12.79167 26392 ft 448 kts 245°
2026-04-30 21:15 52.34748 12.74656 26906 ft 451 kts 243°
2026-04-30 21:16 52.32984 12.70467 27437 ft 457 kts 231°
2026-04-30 21:16 52.30770 12.66723 27966 ft 461 kts 224°
2026-04-30 21:16 52.28398 12.63133 28518 ft 465 kts 223°
2026-04-30 21:16 52.25996 12.59569 29094 ft 469 kts 223°
2026-04-30 21:17 52.23568 12.55984 29685 ft 472 kts 223°
2026-04-30 21:17 52.21125 12.52386 30274 ft 475 kts 223°
2026-04-30 21:17 52.18659 12.48762 30807 ft 479 kts 223°
2026-04-30 21:17 52.16175 12.45116 31313 ft 482 kts 223°
2026-04-30 21:18 52.13680 12.41460 31816 ft 485 kts 223°
2026-04-30 21:18 52.11179 12.37742 32304 ft 488 kts 225°
2026-04-30 21:18 52.08946 12.33592 32782 ft 487 kts 236°
2026-04-30 21:18 52.07246 12.28952 33396 ft 484 kts 247°
2026-04-30 21:19 52.06002 12.23867 33879 ft 484 kts 255°
2026-04-30 21:19 52.05068 12.18610 34301 ft 486 kts 259°
2026-04-30 21:19 52.04292 12.13296 34419 ft 478 kts 261°
2026-04-30 21:19 52.03595 12.08106 34420 ft 462 kts 261°
2026-04-30 21:20 52.02237 11.98045 34425 ft 455 kts 261°
2026-04-30 21:20 52.00810 11.88105 34425 ft 455 kts 259°
2026-04-30 21:21 51.99316 11.78127 34423 ft 454 kts 259°
2026-04-30 21:22 51.96825 11.63328 34428 ft 453 kts 257°
2026-04-30 21:23 51.93403 11.43752 34425 ft 453 kts 257°
2026-04-30 21:23 51.90847 11.29010 34428 ft 453 kts 257°
2026-04-30 21:24 51.89142 11.19211 34427 ft 451 kts 257°
2026-04-30 21:24 51.87447 11.09525 34433 ft 450 kts 257°
2026-04-30 21:25 51.85519 10.94750 34439 ft 447 kts 262°
2026-04-30 21:26 51.83876 10.79899 34439 ft 447 kts 263°
2026-04-30 21:27 51.82223 10.65134 34441 ft 446 kts 262°
2026-04-30 21:27 51.81103 10.55295 34440 ft 446 kts 262°
2026-04-30 21:28 51.79400 10.40486 34439 ft 448 kts 262°
2026-04-30 21:29 51.77683 10.25727 34438 ft 448 kts 262°
2026-04-30 21:30 51.76132 10.12539 34431 ft 446 kts 261°
2026-04-30 21:31 51.74230 9.96549 34433 ft 446 kts 261°
2026-04-30 21:32 51.72456 9.81797 34435 ft 446 kts 261°
2026-04-30 21:32 51.71267 9.72015 34431 ft 446 kts 261°
2026-04-30 21:33 51.69474 9.57389 34424 ft 444 kts 261°
2026-04-30 21:34 51.68280 9.47629 34432 ft 444 kts 261°
2026-04-30 21:34 51.66702 9.32934 34433 ft 445 kts 262°
2026-04-30 21:35 51.65655 9.23107 34423 ft 446 kts 262°
2026-04-30 21:35 51.64587 9.13352 34419 ft 446 kts 262°
2026-04-30 21:36 51.63495 9.03533 34407 ft 446 kts 262°
2026-04-30 21:37 51.61283 8.83894 34403 ft 446 kts 262°
2026-04-30 21:37 51.60165 8.74076 34403 ft 446 kts 261°
2026-04-30 21:38 51.59050 8.64345 34400 ft 446 kts 261°
2026-04-30 21:38 51.57918 8.54557 34400 ft 446 kts 261°
2026-04-30 21:39 51.56775 8.44757 34398 ft 446 kts 261°
2026-04-30 21:39 51.55625 8.34964 34407 ft 446 kts 261°
2026-04-30 21:40 51.54477 8.25260 34402 ft 446 kts 261°
2026-04-30 21:40 51.53312 8.15477 34392 ft 445 kts 261°
2026-04-30 21:41 51.52138 8.05699 34390 ft 446 kts 260°
2026-04-30 21:41 51.50954 7.95913 34383 ft 447 kts 260°
2026-04-30 21:42 51.49767 7.86175 34378 ft 447 kts 260°
2026-04-30 21:42 51.48566 7.76388 34374 ft 447 kts 260°
2026-04-30 21:43 51.47358 7.66621 34372 ft 447 kts 259°
2026-04-30 21:43 51.46141 7.56849 34373 ft 447 kts 259°
2026-04-30 21:44 51.44924 7.47150 34374 ft 447 kts 259°
2026-04-30 21:44 51.43691 7.37385 34373 ft 447 kts 259°
2026-04-30 21:45 51.41936 7.27847 34369 ft 448 kts 245°
2026-04-30 21:45 51.38584 7.19446 34365 ft 449 kts 234°
2026-04-30 21:46 51.34860 7.11441 34362 ft 448 kts 232°
2026-04-30 21:46 51.31112 7.03559 34346 ft 449 kts 232°
2026-04-30 21:47 51.27345 6.95595 34347 ft 449 kts 232°
2026-04-30 21:47 51.23597 6.87639 34345 ft 449 kts 233°
2026-04-30 21:48 51.19844 6.79680 34342 ft 449 kts 232°
2026-04-30 21:48 51.16114 6.71798 34362 ft 449 kts 232°
2026-04-30 21:49 51.12348 6.63860 34343 ft 449 kts 232°
2026-04-30 21:49 51.08487 6.56080 34348 ft 447 kts 225°
2026-04-30 21:50 51.04168 6.48988 34344 ft 447 kts 224°
2026-04-30 21:50 50.99785 6.42071 34334 ft 447 kts 224°
2026-04-30 21:51 50.95365 6.35147 34321 ft 447 kts 224°
2026-04-30 21:51 50.90951 6.28232 34320 ft 447 kts 224°
2026-04-30 21:52 50.86606 6.21428 34321 ft 446 kts 224°
2026-04-30 21:52 50.82180 6.14513 34310 ft 445 kts 224°
2026-04-30 21:53 50.79975 6.11077 34176 ft 459 kts 224°
2026-04-30 21:53 50.77691 6.07522 33895 ft 459 kts 223°
2026-04-30 21:53 50.75417 6.03986 32950 ft 461 kts 223°
2026-04-30 21:53 50.73165 6.00324 31867 ft 469 kts 227°
2026-04-30 21:54 50.71042 5.96369 30830 ft 474 kts 229°
2026-04-30 21:54 50.68945 5.92350 29965 ft 475 kts 231°
2026-04-30 21:54 50.67244 5.87905 29117 ft 474 kts 245°
2026-04-30 21:54 50.66356 5.82918 28349 ft 472 kts 262°
2026-04-30 21:55 50.66359 5.77850 27613 ft 469 kts 278°
2026-04-30 21:55 50.67248 5.72930 26903 ft 465 kts 294°
2026-04-30 21:55 50.68942 5.68637 26204 ft 460 kts 311°
2026-04-30 21:55 50.70978 5.64790 25491 ft 457 kts 307°
2026-04-30 21:56 50.72647 5.60534 24803 ft 454 kts 298°
2026-04-30 21:56 50.74117 5.56139 24094 ft 452 kts 297°
2026-04-30 21:56 50.75536 5.51756 23376 ft 448 kts 297°
2026-04-30 21:56 50.76940 5.47381 22660 ft 443 kts 297°
2026-04-30 21:57 50.78310 5.43088 21940 ft 439 kts 297°
2026-04-30 21:57 50.79674 5.38800 21210 ft 435 kts 297°
2026-04-30 21:57 50.81005 5.34604 20528 ft 431 kts 296°
2026-04-30 21:57 50.82338 5.30394 19845 ft 427 kts 296°
2026-04-30 21:58 50.83661 5.26210 19169 ft 423 kts 296°
2026-04-30 21:58 50.84964 5.22076 18525 ft 419 kts 296°
2026-04-30 21:58 50.86257 5.17967 17804 ft 414 kts 296°
2026-04-30 21:58 50.87396 5.13817 16991 ft 404 kts 287°
2026-04-30 21:59 50.87915 5.09523 15687 ft 395 kts 274°
2026-04-30 21:59 50.88116 5.05213 14337 ft 391 kts 272°
2026-04-30 21:59 50.88277 5.01005 12992 ft 384 kts 272°
2026-04-30 22:00 50.88612 4.92729 10587 ft 367 kts 272°
2026-04-30 22:00 50.88870 4.86694 9727 ft 328 kts 272°
2026-04-30 22:00 50.89009 4.83417 9101 ft 313 kts 272°
2026-04-30 22:01 50.89152 4.80032 8346 ft 303 kts 272°
2026-04-30 22:01 50.89290 4.76748 7599 ft 296 kts 271°
2026-04-30 22:01 50.89425 4.73528 6805 ft 291 kts 271°
2026-04-30 22:01 50.89556 4.70390 6000 ft 288 kts 271°
2026-04-30 22:02 50.89686 4.67250 5199 ft 285 kts 271°
2026-04-30 22:02 50.89815 4.64112 4687 ft 284 kts 270°
2026-04-30 22:02 50.89944 4.61017 4256 ft 280 kts 270°
2026-04-30 22:02 50.90071 4.57947 3873 ft 279 kts 269°
2026-04-30 22:03 50.90196 4.54863 3732 ft 280 kts 269°
2026-04-30 22:03 50.90345 4.51789 3605 ft 281 kts 272°
2026-04-30 22:03 50.90621 4.48733 3479 ft 280 kts 274°
2026-04-30 22:03 50.90924 4.45688 3349 ft 280 kts 274°
2026-04-30 22:04 50.91210 4.42696 3223 ft 282 kts 274°
2026-04-30 22:04 50.91491 4.39667 3099 ft 281 kts 274°
2026-04-30 22:04 50.92031 4.33770 2980 ft 256 kts 274°
2026-04-30 22:05 50.92278 4.31077 2987 ft 237 kts 272°
2026-04-30 22:05 50.92501 4.28545 2988 ft 230 kts 272°
2026-04-30 22:05 50.92719 4.26038 2993 ft 230 kts 272°
2026-04-30 22:05 50.92936 4.23532 3000 ft 229 kts 272°
2026-04-30 22:06 50.93150 4.21043 2994 ft 228 kts 272°
2026-04-30 22:06 50.93312 4.16072 3009 ft 227 kts 251°
2026-04-30 22:06 50.92734 4.13818 2979 ft 217 kts 228°
2026-04-30 22:07 50.91697 4.12061 2984 ft 221 kts 213°
2026-04-30 22:07 50.90480 4.10587 3004 ft 219 kts 205°
2026-04-30 22:07 50.89107 4.09692 2988 ft 210 kts 186°
2026-04-30 22:07 50.87683 4.09715 2985 ft 203 kts 165°
2026-04-30 22:08 50.86321 4.10262 2986 ft 201 kts 160°
2026-04-30 22:08 50.84943 4.10713 2994 ft 202 kts 167°
2026-04-30 22:08 50.83585 4.11255 2991 ft 201 kts 159°
2026-04-30 22:08 50.82345 4.12227 3003 ft 200 kts 142°
2026-04-30 22:09 50.81576 4.13925 2982 ft 191 kts 108°
2026-04-30 22:09 50.81582 4.15972 2979 ft 185 kts 85°
2026-04-30 22:09 50.81979 4.17850 2976 ft 175 kts 76°
2026-04-30 22:09 50.82455 4.19568 2985 ft 166 kts 75°
2026-04-30 22:10 50.82907 4.21150 3014 ft 151 kts 75°
2026-04-30 22:10 50.83332 4.22638 2991 ft 148 kts 76°
2026-04-30 22:10 50.83749 4.24119 3015 ft 146 kts 78°
2026-04-30 22:10 50.84146 4.25536 2902 ft 138 kts 78°
2026-04-30 22:11 50.84902 4.28193 2532 ft 127 kts 78°
2026-04-30 22:11 50.85255 4.29419 2360 ft 118 kts 78°
2026-04-30 22:11 50.85588 4.30581 2193 ft 115 kts 78°
2026-04-30 22:12 50.85913 4.31722 2071 ft 115 kts 77°
2026-04-30 22:12 50.86244 4.32878 1902 ft 115 kts 77°
2026-04-30 22:12 50.86571 4.34015 1751 ft 113 kts 77°
2026-04-30 22:12 50.86893 4.35135 1600 ft 112 kts 78°
2026-04-30 22:13 50.87213 4.36255 1465 ft 112 kts 77°
2026-04-30 22:13 50.87536 4.37378 1307 ft 112 kts 76°
2026-04-30 22:13 50.87856 4.38489 1162 ft 111 kts 76°
2026-04-30 22:13 50.88173 4.39598 1018 ft 111 kts 76°
2026-04-30 22:14 50.88497 4.40733 854 ft 115 kts 72°
2026-04-30 22:14 50.88830 4.41883 725 ft 116 kts 70°
2026-04-30 22:14 50.89168 4.43048 606 ft 117 kts 69°
2026-04-30 22:14 50.89507 4.44215 423 ft 115 kts 68°
2026-04-30 22:15 50.89846 4.45384 308 ft 118 kts 67°
2026-04-30 22:15 50.90185 4.46567 213 ft 119 kts 68°
2026-04-30 22:15 50.90481 4.47601 201 ft 75 kts 65°
2026-04-30 22:15 50.90606 4.48027 208 ft 25 kts 65°
2026-04-30 22:16 50.90675 4.48212 201 ft 12 kts 25°
2026-04-30 22:16 50.90765 4.48186 199 ft 16 kts 342°
2026-04-30 22:17 50.91009 4.48522 206 ft 22 kts 60°
2026-04-30 22:17 50.91057 4.48644 206 ft 4 kts 44°
2026-04-30 22:17 50.91111 4.48610 206 ft 6 kts 330°
2026-04-30 22:18 50.91124 4.48598 196 ft 2 kts 330°
2026-04-30 22:18 50.91126 4.48596 197 ft 0 kts 330°